Location: Excel
(51.3833°N, 110.5667°W)
Time: 20:04:24
(UTC+00:00)

Envisat - Pass Details

Date: 05 December 2021
Orbit: 764 x 766 km, 98.2° (Epoch: 26 January)

Event Time Altitude Azimuth Distance (km) Brightness Sun altitude
Rises 13:13:05 0° 10° (N) 3,248 6.2 -17.3°
Reaches altitude 10° 13:15:27 10° 5° (N) 2,317 5.4 -17.0°
Maximum altitude 13:20:21 49° 292° (WNW) 993 3.1 -16.2°
Drops below altitude 10° 13:25:12 10° 219° (SW) 2,300 5.2 -15.5°
Sets 13:27:34 0° 214° (SW) 3,222 6.1 -15.2°
